Location: Jaworzyna Śląska
(50.9128°N, 16.4318°E)
Time: 13:35:28
(UTC+02:00)

ISS - Visible Passes

Search period start: 21 May 2019 00:00
Search period end: 31 May 2019 00:00
Orbit: 407 x 410 km, 51.6° (Epoch: 21 May)

Date Brightness Start Highest point End Pass type
(mag) Time Alt. Az. Time Alt. Az. Time Alt. Az.
21 May -3.7 00:25:39 10° W 00:28:58 78° N 00:31:57 12° E visible
21 May -3.0 02:02:16 10° W 02:04:32 36° WSW 02:04:32 36° WSW visible
21 May -3.8 21:58:09 10° WSW 22:01:25 60° SSE 22:04:42 10° E visible
21 May -3.7 23:34:40 10° W 23:38:00 76° N 23:41:18 10° E visible
22 May -3.8 01:11:18 10° WNW 01:14:14 61° WSW 01:14:14 61° WSW visible
22 May -3.7 22:43:42 10° W 22:47:01 81° N 22:50:20 10° E visible
23 May -3.9 00:20:20 10° WNW 00:23:39 86° SSW 00:24:32 46° ESE visible
23 May -1.2 01:57:05 10° W 01:57:14 11° W 01:57:14 11° W visible
23 May -3.8 21:52:43 10° WSW 21:56:02 87° SSE 21:59:21 10° ENE visible
23 May -3.8 23:29:21 10° W 23:32:41 81° N 23:34:59 18° E visible
24 May -2.3 01:05:59 10° W 01:07:40 25° W 01:07:40 25° W visible
24 May -3.7 22:38:21 10° W 22:41:40 76° N 22:44:59 10° E visible
25 May -3.8 00:14:58 10° W 00:18:12 59° SSW 00:18:12 59° SSW visible
25 May -3.6 21:47:20 10° W 21:50:39 78° N 21:53:57 10° E visible
25 May -3.9 23:23:58 10° WNW 23:27:17 78° SSW 23:28:46 30° ESE visible
26 May -1.4 01:00:50 10° W 01:01:28 14° W 01:01:28 14° W visible
26 May -3.8 22:32:58 10° W 22:36:16 87° N 22:39:22 12° E visible
27 May -2.8 00:09:37 10° W 00:12:04 31° SW 00:12:04 31° SW visible
27 May -3.7 21:41:55 10° W 21:45:14 78° N 21:48:33 10° E visible
27 May -3.6 23:18:32 10° W 23:21:46 49° SSW 23:22:40 36° SSE visible
28 May -3.8 22:27:29 10° WNW 22:30:47 68° SSW 22:33:19 16° ESE visible
29 May -1.8 00:04:30 10° W 00:06:02 17° WSW 00:06:02 17° WSW visible
29 May -3.8 21:36:27 10° WNW 21:39:45 86° S 21:43:04 10° ESE visible
29 May -2.7 23:13:11 10° W 23:16:05 28° SSW 23:16:41 26° SSW visible
30 May -3.2 22:22:00 10° W 22:25:09 41° SSW 22:27:21 17° SE visible
